Location: Crni Vrh Observatory
(45.9460°N, 14.0712°E)
Time: 06:30:49
(UTC+02:00)

HTV-X1 - Visible Passes

Search period start: 20 May 2026 00:00
Search period end: 30 May 2026 00:00
Orbit: 372 x 382 km, 51.6° (Epoch: 19 May)

Date Brightness Start Highest point End Pass type
(mag) Time Alt. Az. Time Alt. Az. Time Alt. Az.
20 May ? 21:40:58 10° NW 21:43:53 37° NNE 21:46:47 10° E visible
20 May ? 23:16:50 10° WNW 23:18:59 35° W 23:18:59 35° W visible
21 May ? 22:15:37 10° WNW 22:18:43 85° NNE 22:20:02 31° ESE visible
22 May ? 21:14:28 10° NW 21:17:28 47° NNE 21:20:28 10° E visible
22 May ? 22:50:29 10° WNW 22:53:07 30° SW 22:53:07 30° SW visible
23 May ? 21:49:03 10° WNW 21:52:06 65° SSW 21:54:07 19° SE visible
24 May ? 22:24:03 10° W 22:26:25 20° SW 22:27:11 18° SSW visible
25 May ? 21:22:18 10° WNW 21:25:15 42° SW 21:28:10 10° SE visible
26 May ? 21:57:43 10° WSW 21:59:20 13° SW 22:00:56 10° SSW visible
